Downstream station:
SHEF ID: CRNO2 North Criner Creek near Criner,
STATION TYPE:
STAGE RIV-FLOW BAT-LOAD
ft cfs volt
Ccp-Rev Ccp-Rev Ccp-Rev
(US/Central)
01/20 00:00 2.85 0 12.17
01/20 01:00 2.85 0 12.09
01/20 02:00 2.84 0 12.09
01/20 03:00 2.85 0 12.09
01/20 04:00 2.85 0 12.09
01/20 05:00 2.84 0 12.09
01/20 06:00 2.84 0 12.09
01/20 07:00 2.81 0 12.09
01/20 08:00 2.81 0 12.09
01/20 09:00 2.82 0 12.09
01/20 10:00 2.84 0 12.57
01/20 11:00 2.83 0 12.89
01/20 12:00 2.83 0 13.13
01/20 13:00 2.83 0 13.21
01/20 14:00 2.83 0 13.21
01/20 15:00 2.82 0 13.05
01/20 16:00 2.82 0 12.97
01/20 17:00 2.82 0 12.73
01/20 18:00 2.82 0 12.65
01/20 19:00 2.81 0 12.57
01/20 20:00 2.81 0 12.49
01/20 21:00 2.81 0 12.41
01/20 22:00 2.80 0 12.41
01/20 23:00 2.84 0 12.33